Weather History for Marshall, MN

Change the Weather History Date:

Wednesday, May 13, 2009

  Actual Average Record
Temperature  
Mean Temperature 63 °F -  
Max Temperature 71 °F 67 °F 93 °F (1987)
Min Temperature 53 °F 42 °F 26 °F (1997)
Degree Days  
Heating Degree Days 2    
Growing Degree Days 13 (Base 50)    
Moisture  
Dew Point 42 °F    
Average Humidity 51    
Maximum Humidity 82    
Minimum Humidity 21    
Precipitation  
Precipitation 0.00 in - - ()
Sea Level Pressure  
Sea Level Pressure 29.60 in    
Wind  
Wind Speed 17 mph (West)    
Max Wind Speed 38 mph    
Max Gust Speed 48 mph    
Visibility 10 miles    
Events      
Averages and records for this station are not official NWS values.
T = Trace of Precipitation, MM = Missing Value Source: NWS Daily Summary

Daily Weather History Graph

Daily Weather History Graph

Search for Another Location

Airport:

Trip Planner

Search our weather history database for the weather conditions in past years. The results will help you decide how hot, cold, wet, or windy it might be!

Date:

Astronomy

May. 13, 2009 Rise Set
Actual Time 5:57 AM CDT 8:42 PM CDT
Civil Twilight 5:24 AM CDT 9:15 PM CDT
Nautical Twilight 4:42 AM CDT 9:58 PM CDT
Astronomical Twilight 3:53 AM CDT 10:47 PM CDT
Moon 12:25 AM CDT (5/13) 9:04 AM CDT (5/13)
Length of Visible Light 15h 51m
Length of Day
14h 44m
Waning Gibbous, 82% of the Moon is Illuminated
May 13
Waning Gibbous
May 17
Last Quarter
May 24
New
May 30
First Quarter
Jun 7
Full

Hourly Weather History & Observations

Time (CDT) Temp. Windchill Dew Point Humidity Pressure Visibility Wind Dir Wind Speed Gust Speed Precip Events Conditions
12:15 AM 60.8 °F - 51.8 °F 72% 29.57 in 10.0 mi South 12.7 mph - N/A   Overcast
12:35 AM 60.8 °F - 51.8 °F 72% 29.56 in 10.0 mi South 15.0 mph 20.7 mph N/A   Overcast
12:55 AM 60.8 °F - 53.6 °F 77% 29.56 in 10.0 mi South 15.0 mph 18.4 mph N/A   Overcast
1:15 AM 60.8 °F - 53.6 °F 77% 29.53 in 10.0 mi South 15.0 mph 21.9 mph N/A   Overcast
1:35 AM 60.8 °F - 53.6 °F 77% 29.53 in 10.0 mi South 12.7 mph - N/A   Overcast
1:55 AM 60.8 °F - 53.6 °F 77% 29.56 in 10.0 mi SSW 10.4 mph - N/A   Overcast
2:15 AM 60.8 °F - 53.6 °F 77% 29.58 in 10.0 mi SW 11.5 mph - N/A   Overcast
2:35 AM 60.8 °F - 53.6 °F 77% 29.53 in 10.0 mi SSW 15.0 mph - N/A   Overcast
2:55 AM 60.8 °F - 53.6 °F 77% 29.53 in 10.0 mi SSW 17.3 mph 21.9 mph N/A   Overcast
3:15 AM 60.8 °F - 53.6 °F 77% 29.51 in 10.0 mi SSW 20.7 mph 24.2 mph N/A   Overcast
3:35 AM 60.8 °F - 53.6 °F 77% 29.50 in 10.0 mi SSW 17.3 mph 25.3 mph N/A   Overcast
3:55 AM 60.8 °F - 53.6 °F 77% 29.48 in 10.0 mi SSW 18.4 mph 25.3 mph N/A   Overcast
4:15 AM 60.8 °F - 53.6 °F 77% 29.50 in 10.0 mi SW 18.4 mph 24.2 mph N/A   Overcast
4:35 AM 60.8 °F - 53.6 °F 77% 29.51 in 10.0 mi SW 15.0 mph 23.0 mph N/A   Overcast
4:55 AM 60.8 °F - 53.6 °F 77% 29.52 in 10.0 mi SW 13.8 mph - N/A   Overcast
5:15 AM 62.6 °F - 53.6 °F 72% 29.53 in 10.0 mi WSW 12.7 mph - N/A   Mostly Cloudy
5:35 AM 60.8 °F - 53.6 °F 77% 29.53 in 10.0 mi WSW 12.7 mph - N/A   Clear
5:55 AM 60.8 °F - 53.6 °F 77% 29.54 in 10.0 mi WSW 16.1 mph 19.6 mph N/A   Clear
6:35 AM 60.8 °F - 53.6 °F 77% 29.55 in 10.0 mi West 15.0 mph - N/A   Clear
6:55 AM 59.0 °F - 53.6 °F 82% 29.55 in 10.0 mi West 12.7 mph - N/A   Clear
7:35 AM 60.8 °F - 53.6 °F 77% 29.57 in 10.0 mi WNW 10.4 mph - N/A   Clear
7:55 AM 60.8 °F - 51.8 °F 72% 29.57 in 10.0 mi NW 13.8 mph - N/A   Clear
8:15 AM 60.8 °F - 48.2 °F 63% 29.57 in 10.0 mi NW 17.3 mph - N/A   Clear
8:35 AM 60.8 °F - 46.4 °F 59% 29.58 in 10.0 mi NW 16.1 mph 24.2 mph N/A   Clear
8:55 AM 60.8 °F - 46.4 °F 59% 29.58 in 10.0 mi NW 17.3 mph - N/A   Clear
9:15 AM 62.6 °F - 46.4 °F 55% 29.58 in 10.0 mi WNW 17.3 mph 21.9 mph N/A   Clear
9:35 AM 62.6 °F - 46.4 °F 55% 29.58 in 10.0 mi NW 15.0 mph - N/A   Clear
9:55 AM 64.4 °F - 46.4 °F 52% 29.59 in 10.0 mi NW 13.8 mph 18.4 mph N/A   Clear
10:15 AM 64.4 °F - 44.6 °F 49% 29.59 in 10.0 mi WNW 12.7 mph 18.4 mph N/A   Partly Cloudy
10:35 AM 64.4 °F - 44.6 °F 49% 29.59 in 10.0 mi WNW 15.0 mph 18.4 mph N/A   Partly Cloudy
10:55 AM 64.4 °F - 46.4 °F 52% 29.58 in 10.0 mi WNW 16.1 mph 24.2 mph N/A   Mostly Cloudy
11:15 AM 64.4 °F - 44.6 °F 49% 29.57 in 10.0 mi WNW 18.4 mph 23.0 mph N/A   Overcast
11:35 AM 66.2 °F - 46.4 °F 49% 29.59 in 10.0 mi WNW 15.0 mph 21.9 mph N/A   Mostly Cloudy
11:55 AM 64.4 °F - 44.6 °F 49% 29.60 in 10.0 mi WNW 18.4 mph - N/A   Mostly Cloudy
12:15 PM 64.4 °F - 44.6 °F 49% 29.61 in 10.0 mi WNW 12.7 mph - N/A   Mostly Cloudy
12:35 PM 66.2 °F - 44.6 °F 46% 29.61 in 10.0 mi WNW 13.8 mph - N/A   Mostly Cloudy
12:55 PM 66.2 °F - 42.8 °F 43% 29.61 in 10.0 mi WNW 16.1 mph 20.7 mph N/A   Partly Cloudy
1:15 PM 68.0 °F - 42.8 °F 40% 29.61 in 10.0 mi WNW 16.1 mph - N/A   Partly Cloudy
1:35 PM 68.0 °F - 39.2 °F 35% 29.61 in 10.0 mi West 19.6 mph - N/A   Partly Cloudy
1:55 PM 68.0 °F - 39.2 °F 35% 29.61 in 10.0 mi West 20.7 mph 26.5 mph N/A   Mostly Cloudy
2:15 PM 69.8 °F - 39.2 °F 33% 29.60 in 10.0 mi West 26.5 mph 34.5 mph N/A   Scattered Clouds
2:35 PM 71.6 °F - 37.4 °F 29% 29.61 in 10.0 mi West 25.3 mph 33.4 mph N/A   Clear
2:55 PM 71.6 °F - 37.4 °F 29% 29.61 in 10.0 mi West 26.5 mph 34.5 mph N/A   Clear
3:15 PM 69.8 °F - 37.4 °F 31% 29.61 in 10.0 mi West 25.3 mph 34.5 mph N/A   Partly Cloudy
3:35 PM 69.8 °F - 33.8 °F 27% 29.62 in 10.0 mi West 31.1 mph 39.1 mph N/A   Partly Cloudy
3:55 PM 69.8 °F - 35.6 °F 28% 29.62 in 10.0 mi West 25.3 mph 34.5 mph N/A   Scattered Clouds
4:15 PM 69.8 °F - 33.8 °F 27% 29.63 in 10.0 mi West 26.5 mph 38.0 mph N/A   Mostly Cloudy
4:35 PM 68.0 °F - 33.8 °F 28% 29.65 in 10.0 mi West 28.8 mph 36.8 mph N/A   Mostly Cloudy
4:55 PM 66.2 °F - 32.0 °F 28% 29.65 in 10.0 mi WNW 32.2 mph 39.1 mph N/A   Scattered Clouds
5:15 PM 66.2 °F - 28.4 °F 24% 29.67 in 10.0 mi West 31.1 mph 39.1 mph N/A   Partly Cloudy
5:35 PM 66.2 °F - 28.4 °F 24% 29.67 in 10.0 mi West 31.1 mph 40.3 mph N/A   Clear
5:55 PM 64.4 °F - 26.6 °F 24% 29.68 in 10.0 mi West 29.9 mph 39.1 mph N/A   Partly Cloudy
6:15 PM 64.4 °F - 23.0 °F 21% 29.68 in 10.0 mi West 38.0 mph 48.3 mph N/A   Partly Cloudy
6:35 PM 64.4 °F - 24.8 °F 22% 29.69 in 10.0 mi West 33.4 mph 41.4 mph N/A   Clear
6:55 PM 62.6 °F - 24.8 °F 24% 29.69 in 10.0 mi West 25.3 mph 36.8 mph N/A   Clear
7:15 PM 62.6 °F - 24.8 °F 24% 29.69 in 10.0 mi West 28.8 mph 38.0 mph N/A   Clear
7:35 PM 60.8 °F - 24.8 °F 25% 29.70 in 10.0 mi West 27.6 mph 34.5 mph N/A   Clear
7:55 PM 59.0 °F - 26.6 °F 29% 29.70 in 10.0 mi West 26.5 mph 31.1 mph N/A   Clear
8:15 PM 57.2 °F - 28.4 °F 33% 29.70 in 10.0 mi West 28.8 mph 39.1 mph N/A   Partly Cloudy
8:35 PM 55.4 °F - 26.6 °F 33% 29.71 in 10.0 mi West 25.3 mph 32.2 mph N/A   Clear
8:55 PM 55.4 °F - 28.4 °F 36% 29.72 in 10.0 mi West 20.7 mph - N/A   Clear
9:15 PM 55.4 °F - 28.4 °F 36% 29.72 in 10.0 mi West 23.0 mph 31.1 mph N/A   Scattered Clouds
9:35 PM 53.6 °F - 30.2 °F 41% 29.73 in 10.0 mi West 20.7 mph 27.6 mph N/A   Scattered Clouds
9:55 PM 53.6 °F - 30.2 °F 41% 29.74 in 10.0 mi West 19.6 mph - N/A   Partly Cloudy
10:15 PM 51.8 °F - 30.2 °F 44% 29.74 in 10.0 mi West 20.7 mph - N/A   Clear
10:35 PM 51.8 °F - 30.2 °F 44% 29.76 in 10.0 mi West 27.6 mph 38.0 mph N/A   Clear
10:55 PM 50.0 °F - 30.2 °F 47% 29.78 in 10.0 mi West 19.6 mph 29.9 mph N/A   Clear
11:15 PM 48.2 °F - 30.2 °F 50% 29.79 in 10.0 mi West 25.3 mph 34.5 mph N/A   Clear
11:35 PM 48.2 °F - 30.2 °F 50% 29.80 in 10.0 mi West 24.2 mph - N/A   Clear
11:55 PM 46.4 °F 37.9 °F 30.2 °F 53% 29.81 in 10.0 mi West 25.3 mph 34.5 mph N/A   Clear